FLT555 VNKT-VNLK

Flight info

Callsign FLT555
Flight time 0h 28m
Altitude 150
Route KIMTI DST VNKL
Aircraft C408/L-VGD/C

Departure

Time 2026-04-24 02:57
Airport Tribhuvan International Airport (VNKT)

Arrival

Time 2026-04-24 03:25
Airport Tenzing-Hillary Airport (VNLK)
Time Latitude Longitude Altitude Speed Heading
2026-04-24 02:40 27.70534 85.36004 4384 ft 0 kts 247°
2026-04-24 02:51 27.70527 85.35994 4383 ft 5 kts 209°
2026-04-24 02:51 27.70481 85.36004 4383 ft 9 kts 163°
2026-04-24 02:51 27.70433 85.36020 4382 ft 10 kts 163°
2026-04-24 02:51 27.70369 85.36042 4380 ft 11 kts 161°
2026-04-24 02:52 27.70310 85.36066 4380 ft 12 kts 160°
2026-04-24 02:52 27.70213 85.36051 4373 ft 18 kts 202°
2026-04-24 02:52 27.70127 85.36009 4375 ft 12 kts 204°
2026-04-24 02:52 27.70041 85.35969 4368 ft 13 kts 201°
2026-04-24 02:53 27.69949 85.35928 4370 ft 11 kts 202°
2026-04-24 02:53 27.69854 85.35884 4363 ft 18 kts 202°
2026-04-24 02:53 27.69719 85.35823 4364 ft 24 kts 202°
2026-04-24 02:53 27.69613 85.35775 4356 ft 16 kts 202°
2026-04-24 02:54 27.69532 85.35738 4360 ft 10 kts 202°
2026-04-24 02:54 27.69443 85.35697 4349 ft 17 kts 202°
2026-04-24 02:54 27.69309 85.35635 4343 ft 24 kts 202°
2026-04-24 02:54 27.69173 85.35575 4349 ft 20 kts 201°
2026-04-24 02:55 27.69094 85.35554 4343 ft 8 kts 148°
2026-04-24 02:55 27.69066 85.35610 4345 ft 8 kts 89°
2026-04-24 02:55 27.69089 85.35655 4347 ft 6 kts 23°
2026-04-24 02:55 27.69100 85.35660 4347 ft 0 kts 22°
2026-04-24 02:56 27.69105 85.35662 4347 ft 6 kts 22°
2026-04-24 02:56 27.69357 85.35777 4351 ft 71 kts 22°
2026-04-24 02:56 27.69991 85.36064 4366 ft 122 kts 22°
2026-04-24 02:57 27.70822 85.36433 4750 ft 132 kts 21°
2026-04-24 02:57 27.71702 85.36825 5157 ft 140 kts 17°
2026-04-24 02:57 27.72605 85.37344 5480 ft 152 kts 37°
2026-04-24 02:57 27.73370 85.38208 5817 ft 160 kts 53°
2026-04-24 02:58 27.73878 85.39342 6158 ft 165 kts 70°
2026-04-24 02:58 27.74047 85.40637 6487 ft 169 kts 90°
2026-04-24 02:58 27.74035 85.41970 6795 ft 171 kts 90°
2026-04-24 02:58 27.73971 85.43306 7032 ft 170 kts 101°
2026-04-24 02:59 27.73594 85.44550 7338 ft 170 kts 117°
2026-04-24 02:59 27.72921 85.45643 7646 ft 170 kts 133°
2026-04-24 02:59 27.71996 85.46486 7959 ft 170 kts 149°
2026-04-24 02:59 27.70916 85.47039 8279 ft 170 kts 158°
2026-04-24 03:00 27.69832 85.47553 8618 ft 172 kts 158°
2026-04-24 03:00 27.68709 85.48034 8930 ft 174 kts 162°
2026-04-24 03:00 27.67604 85.48606 9249 ft 176 kts 153°
2026-04-24 03:00 27.66546 85.49342 9577 ft 180 kts 146°
2026-04-24 03:01 27.65566 85.50232 9906 ft 182 kts 139°
2026-04-24 03:01 27.64683 85.51262 10213 ft 183 kts 131°
2026-04-24 03:01 27.63920 85.52414 10498 ft 184 kts 123°
2026-04-24 03:01 27.63290 85.53672 10799 ft 185 kts 115°
2026-04-24 03:02 27.62804 85.55015 11090 ft 184 kts 108°
2026-04-24 03:02 27.62445 85.56384 11392 ft 184 kts 106°
2026-04-24 03:02 27.62069 85.57774 11696 ft 186 kts 106°
2026-04-24 03:02 27.61695 85.59165 12001 ft 185 kts 105°
2026-04-24 03:03 27.61322 85.60578 12311 ft 190 kts 106°
2026-04-24 03:03 27.60937 85.62020 12625 ft 194 kts 106°
2026-04-24 03:03 27.60546 85.63487 12950 ft 196 kts 106°
2026-04-24 03:03 27.60156 85.64949 13270 ft 198 kts 106°
2026-04-24 03:04 27.59757 85.66444 13600 ft 200 kts 106°
2026-04-24 03:04 27.59353 85.67950 13924 ft 201 kts 107°
2026-04-24 03:04 27.58880 85.69442 14217 ft 203 kts 111°
2026-04-24 03:04 27.58313 85.70900 14509 ft 203 kts 116°
2026-04-24 03:05 27.57681 85.72330 14808 ft 203 kts 117°
2026-04-24 03:05 27.57049 85.73762 15079 ft 207 kts 117°
2026-04-24 03:05 27.56391 85.75255 15091 ft 221 kts 117°
2026-04-24 03:05 27.55696 85.76838 15097 ft 229 kts 117°
2026-04-24 03:06 27.54978 85.78468 15098 ft 234 kts 117°
2026-04-24 03:06 27.54247 85.80130 15094 ft 237 kts 117°
2026-04-24 03:06 27.53511 85.81802 15091 ft 237 kts 117°
2026-04-24 03:06 27.52747 85.83440 15051 ft 236 kts 122°
2026-04-24 03:07 27.52106 85.85143 15056 ft 238 kts 108°
2026-04-24 03:07 27.51625 85.86937 15049 ft 239 kts 104°
2026-04-24 03:07 27.51273 85.88766 15063 ft 239 kts 99°
2026-04-24 03:07 27.51052 85.90625 15068 ft 240 kts 94°
2026-04-24 03:08 27.50962 85.92498 15072 ft 239 kts 90°
2026-04-24 03:08 27.50836 85.96218 15068 ft 239 kts 91°
2026-04-24 03:08 27.50761 85.98089 15064 ft 238 kts 91°
2026-04-24 03:09 27.50693 85.99954 15064 ft 238 kts 90°
2026-04-24 03:09 27.50625 86.01820 15063 ft 238 kts 91°
2026-04-24 03:09 27.50552 86.03675 15059 ft 237 kts 91°
2026-04-24 03:09 27.50485 86.05528 15058 ft 238 kts 91°
2026-04-24 03:10 27.50415 86.07385 15061 ft 237 kts 91°
2026-04-24 03:10 27.50344 86.09241 15064 ft 237 kts 91°
2026-04-24 03:10 27.50273 86.11108 15068 ft 239 kts 91°
2026-04-24 03:10 27.50201 86.12983 15073 ft 240 kts 91°
2026-04-24 03:11 27.50129 86.14861 15073 ft 240 kts 91°
2026-04-24 03:11 27.50059 86.16716 15072 ft 240 kts 91°
2026-04-24 03:11 27.49986 86.18592 15088 ft 239 kts 91°
2026-04-24 03:11 27.49913 86.20453 15093 ft 237 kts 91°
2026-04-24 03:12 27.49841 86.22306 15097 ft 236 kts 92°
2026-04-24 03:12 27.49767 86.24152 15083 ft 235 kts 92°
2026-04-24 03:12 27.49699 86.25986 15083 ft 234 kts 91°
2026-04-24 03:12 27.49449 86.27784 15081 ft 232 kts 105°
2026-04-24 03:13 27.49035 86.29544 15083 ft 233 kts 103°
2026-04-24 03:13 27.48638 86.31319 15085 ft 234 kts 104°
2026-04-24 03:13 27.48238 86.33103 15086 ft 235 kts 104°
2026-04-24 03:13 27.47838 86.34868 15108 ft 236 kts 104°
2026-04-24 03:14 27.47431 86.36660 15102 ft 236 kts 103°
2026-04-24 03:14 27.47027 86.38447 15103 ft 235 kts 104°
2026-04-24 03:14 27.46620 86.40233 15109 ft 236 kts 104°
2026-04-24 03:14 27.46216 86.42018 15101 ft 235 kts 104°
2026-04-24 03:15 27.45812 86.43794 15106 ft 233 kts 104°
2026-04-24 03:15 27.45419 86.45531 15099 ft 222 kts 104°
2026-04-24 03:15 27.45047 86.47168 15097 ft 211 kts 104°
2026-04-24 03:15 27.44685 86.48752 15098 ft 206 kts 104°
2026-04-24 03:16 27.44344 86.50254 15111 ft 188 kts 104°
2026-04-24 03:16 27.44024 86.51657 14954 ft 184 kts 104°
2026-04-24 03:16 27.43713 86.53032 14784 ft 183 kts 103°
2026-04-24 03:16 27.43396 86.54420 14616 ft 183 kts 103°
2026-04-24 03:17 27.43077 86.55818 14393 ft 185 kts 103°
2026-04-24 03:17 27.42755 86.57230 14238 ft 187 kts 103°
2026-04-24 03:17 27.42432 86.58640 14073 ft 185 kts 103°
2026-04-24 03:17 27.42112 86.60043 13915 ft 184 kts 103°
2026-04-24 03:18 27.41796 86.61435 13739 ft 183 kts 101°
2026-04-24 03:18 27.41772 86.62820 13561 ft 179 kts 75°
2026-04-24 03:18 27.42221 86.64095 13373 ft 173 kts 52°
2026-04-24 03:18 27.43032 86.65042 13218 ft 165 kts 30°
2026-04-24 03:19 27.44060 86.65580 13093 ft 163 kts 13°
2026-04-24 03:19 27.45161 86.65907 12927 ft 164 kts 14°
2026-04-24 03:19 27.46256 86.66246 12755 ft 163 kts 14°
2026-04-24 03:19 27.46980 86.66467 12648 ft 163 kts 14°
2026-04-24 03:20 27.48440 86.66913 12420 ft 164 kts 14°
2026-04-24 03:20 27.49541 86.67250 12254 ft 164 kts 14°
2026-04-24 03:20 27.50272 86.67473 12139 ft 163 kts 14°
2026-04-24 03:20 27.51375 86.67810 11951 ft 165 kts 14°
2026-04-24 03:21 27.52476 86.68147 11735 ft 163 kts 14°
2026-04-24 03:21 27.53563 86.68480 11531 ft 162 kts 14°
2026-04-24 03:21 27.54655 86.68750 11319 ft 160 kts
2026-04-24 03:21 27.55763 86.68930 11161 ft 161 kts
2026-04-24 03:22 27.56876 86.69110 10957 ft 161 kts
2026-04-24 03:22 27.57976 86.69281 10758 ft 162 kts
2026-04-24 03:22 27.59090 86.69456 10549 ft 161 kts
2026-04-24 03:22 27.60201 86.69633 10343 ft 161 kts
2026-04-24 03:23 27.61310 86.69808 10138 ft 161 kts
2026-04-24 03:23 27.62415 86.69983 10002 ft 156 kts
2026-04-24 03:23 27.63443 86.70148 10009 ft 145 kts
2026-04-24 03:23 27.64425 86.70303 10004 ft 140 kts
2026-04-24 03:24 27.65384 86.70458 10001 ft 138 kts
2026-04-24 03:24 27.66329 86.70606 9996 ft 137 kts
2026-04-24 03:24 27.67228 86.70732 9802 ft 124 kts 13°
2026-04-24 03:24 27.67883 86.71272 9644 ft 119 kts 58°
2026-04-24 03:25 27.68232 86.72121 9392 ft 119 kts 53°
2026-04-24 03:25 27.68636 86.72855 9250 ft 85 kts 56°
2026-04-24 03:25 27.68755 86.73058 9377 ft 0 kts 345°
2026-04-24 03:25 27.68774 86.73062 9379 ft 0 kts 47°